SCP
0 0 0 0 0 0 0 0 0 0 0 0 0 0 0 0 0 0 0 0 0 1 1 1 1 1 1 1 0 1 1 1 1 1 0 0 0 0 0 0 0 0 1 1
0 0 0 0 0 0 0 0 0 0 0 0 0 0 0 0 0 0 0 0 0 1 1 1 1 1 1 1 1 1 1 1 1 0 0 0 0 0 0 0 0 0 1 1
0 0 0 0 0 0 0 0 0 0 0 0 0 0 0 0 0 0 0 0 0 0 1 1 1 1 1 1 1 1 1 0 0 0 0 0 0 0 0 0 0 0 0 0
0 0 0 0 0 0 0 0 0 0 0 0 0 0 0 0 0 0 0 0 0 0 0 0 0 0 1 1 1 1 1 0 0 0 0 0 0 0 0 0 0 0 0 0
0 0 0 0 0 0 0 0 0 0 0 0 0 0 0 0 0 0 0 0 0 0 0 0 0 0 1 1 1 1 1 1 1 1 0 0 0 0 0 0 0 0 0 0
0 0 0 0 0 0 0 0 0 0 0 0 0 0 0 0 0 0 0 0 0 0 0 0 0 0 0 0 1 1 1 1 1 1 1 1 1 0 0 0 0 0 0 0
0 0 0 0 0 0 0 0 0 0 0 0 0 0 0 0 0 0 0 0 0 0 1 1 1 1 1 0 0 1 1 1 1 1 1 1 1 1 1 0 0 0 0 0
0 0 0 0 0 0 0 0 0 0 0 0 0 0 0 0 0 0 0 0 0 0 1 1 1 1 1 1 1 1 1 1 1 1 1 1 1 1 1 0 0 0 0 0
0 0 0 0 0 0 0 0 0 0 0 1 1 1 0 0 0 0 0 0 0 0 0 1 1 1 1 1 1 1 1 1 1 1 0 0 0 0 0 0 0 0 0 0
0 0 0 0 0 0 0 0 0 0 0 1 1 1 1 0 0 0 0 0 0 0 0 0 0 0 1 1 1 1 1 1 1 1 0 0 0 0 0 0 0 0 0 0
0 0 0 0 0 0 0 0 0 0 0 0 0 0 1 1 0 0 0 0 0 0 0 0 0 0 0 0 1 1 1 1 1 0 0 0 0 0 0 0 0 0 0 0
0 0 0 0 0 0 0 0 0 0 0 0 0 0 0 0 0 0 0 0 0 0 0 0 0 0 0 0 0 0 1 1 1 0 0 0 0 0 0 0 0 0 0 0
0 0 0 0 0 0 0 0 0 0 0 0 0 0 0 0 0 0 0 0 0 0 0 0 0 0 0 0 0 0 0 0 0 0 0 0 0 0 0 0 0 0 0 0
0 0 0 0 0 0 0 0 0 0 0 0 0 0 0 0 0 0 0 0 0 0 0 0 0 0 0 0 0 0 0 0 0 0 0 0 0 0 0 0 0 0 0 0
0 0 0 0 0 0 0 0 0 0 0 0 0 0 0 0 0 0 0 0 0 0 0 0 0 0 0 0 0 0 0 0 0 0 0 0 0 0 0 0 0 0 0 0
0 0 0 0 0 0 0 0 0 0 0 0 0 0 0 0 0 0 0 0 0 0 0 0 0 0 0 0 0 0 0 0 0 0 0 0 0 0 0 0 0 0 0 0
0 0 0 0 0 0 0 0 0 0 0 0 0 0 0 0 0 0 0 0 0 0 0 0 0 0 0 0 0 0 0 0 0 0 0 0 0 0 0 0 0 0 0 0
0 0 0 0 0 0 0 0 0 0 0 0 0 0 0 0 0 0 0 0 0 0 0 0 0 0 0 0 0 0 0 0 0 0 0 0 0 0 0 0 0 0 0 0
0 0 0 0 0 0 0 0 0 0 0 0 0 0 0 0 0 0 0 0 0 0 0 0 0 0 0 0 0 0 0 0 0 0 0 0 0 0 0 0 0 0 0 0
0 0 0 0 0 0 0 0 0 0 0 0 0 0 0 0 0 0 0 0 0 0 0 0 0 0 0 0 0 0 0 0 0 0 0 0 0 0 0 0 0 0 0 0
0 0 0 0 0 0 0 0 0 0 0 0 0 0 0 0 0 0 0 0 0 0 0 0 0 0 0 0 0 0 0 0 0 0 0 0 0 0 0 0 0 0 0 0
0 0 0 0 0 0 0 0 0 0 0 0 0 0 0 0 0 0 0 0 0 0 0 0 0 0 0 0 0 0 0 0 0 0 0 0 0 0 0 0 0 0 0 0
0 0 0 0 0 0 0 0 0 0 0 0 0 0 0 0 0 0 0 0 0 0 0 0 0 0 0 0 0 0 0 0 0 0 0 0 0 0 0 0 0 0 0 0
0 0 0 0 0 0 0 0 0 0 0 0 0 0 0 0 0 0 0 0 0 0 0 0 0 0 0 0 0 0 0 0 0 0 0 0 0 0 0 0 0 0 0 0
0 0 0 0 0 0 0 0 0 0 0 0 0 0 0 0 0 0 0 0 0 0 0 0 0 0 0 0 0 0 0 0 0 0 0 0 0 0 0 0 0 0 0 0
0 0 0 0 0 0 0 0 0 0 0 0 0 0 0 0 0 0 0 0 0 0 0 0 0 0 0 0 0 0 0 0 0 0 0 0 0 0 0 0 0 0 0 0
0 0 0 0 0 0 0 0 0 0 0 0 0 0 0 0 0 0 0 0 0 0 0 0 0 0 0 0 0 0 0 0 0 0 0 0 0 0 0 0 0 0 0 0
Wind_Speed
4 3 4 5 6 7 8 7 7 3 3 3 1 1 1 2 3 3 3 3 3 3 4 3 3 2 2 2 2 2 3 3 2 2 2 3 3 4 4 4 4 4 4 4
6 6 6 6 6 7 7 6 5 4 4 1 2 2 2 2 2 2 2 2 3 3 3 3 2 2 2 2 2 2 2 2 2 2 3 3 3 4 4 4 4 4 4 3
7 7 9 8 6 7 7 6 6 6 3 2 2 2 2 2 2 2 2 2 2 2 2 1 1 2 2 2 2 2 2 2 2 3 3 3 3 3 4 4 4 4 4 4
6 7 11 1 1 3 4 3 3 2 1 2 1 2 3 2 2 2 2 2 2 1 0 1 1 2 1 1 2 2 2 2 2 2 2 2 2 3 3 3 3 4 5 5
7 9 7 5 3 3 4 3 1 2 2 3 3 3 4 3 2 2 2 2 2 1 1 1 0 1 1 1 1 1 2 2 2 2 2 3 3 3 3 4 4 4 4 4
8 10 8 3 3 1 5 5 1 1 2 2 4 4 3 4 3 3 3 3 3 2 2 1 1 1 1 1 1 2 2 2 2 2 2 2 2 3 3 3 4 4 3 4
10 9 4 4 2 4 6 1 3 1 1 1 0 3 4 3 3 3 3 4 3 3 2 1 1 0 1 0 1 2 1 1 1 2 2 2 2 2 3 3 3 3 3 3
9 10 4 4 3 2 3 4 2 1 1 1 2 3 3 3 3 3 3 3 3 3 3 2 1 1 0 1 1 1 1 1 2 2 3 1 1 2 2 3 3 4 4 4
2 1 4 2 2 3 2 2 1 1 2 2 2 2 3 2 2 2 3 3 3 3 3 3 3 2 1 2 2 1 1 1 2 1 1 1 1 2 2 3 3 3 3 3
2 3 3 3 3 3 3 3 2 2 2 2 3 3 2 2 2 2 2 2 2 3 3 3 3 3 3 3 2 2 2 1 1 1 1 1 1 1 1 2 2 2 3 3
3 3 3 3 2 2 3 3 3 2 2 2 3 3 2 2 2 2 2 3 3 3 3 4 4 3 3 3 2 1 1 1 1 1 0 0 1 2 2 2 2 3 3 3
2 3 3 3 3 2 2 2 2 2 2 2 2 3 2 2 2 2 2 3 3 4 4 4 4 4 4 4 3 2 1 1 1 1 0 1 1 0 2 1 2 1 3 4
1 1 1 2 3 2 2 2 1 2 2 2 3 3 3 3 2 2 2 3 3 3 3 3 3 4 4 4 3 2 2 2 2 2 1 2 2 2 1 1 2 1 1 1
1 1 2 3 2 2 2 2 2 2 3 3 3 2 3 2 2 2 2 2 2 2 2 3 3 3 3 3 3 2 2 2 2 2 2 2 2 3 2 2 1 1 2 3
2 2 2 3 3 2 2 3 3 2 3 3 3 3 2 2 2 2 2 1 2 2 2 3 3 3 3 3 2 2 2 2 2 2 2 2 2 3 3 3 3 2 2 1
2 2 3 4 4 3 3 3 2 2 2 2 3 3 2 2 2 2 1 1 2 3 4 3 3 3 3 3 2 2 2 3 2 2 2 2 2 2 2 2 2 3 3 3
3 3 4 4 4 3 3 3 2 3 3 2 2 2 2 2 1 1 1 2 2 2 3 3 4 4 3 3 3 2 2 2 1 2 2 2 2 3 3 3 3 2 3 4
2 2 2 3 3 3 2 2 2 2 2 2 2 2 2 1 0 1 1 1 2 2 3 3 3 3 3 3 3 3 2 1 2 2 2 2 3 3 3 3 3 3 3 2
1 1 1 2 2 2 2 2 2 2 2 2 2 2 1 1 0 0 0 0 1 1 2 3 3 3 3 3 3 2 2 2 2 2 2 1 2 3 3 3 3 3 3 3
1 2 2 2 1 1 1 1 1 1 1 2 2 1 1 1 0 0 1 1 1 2 2 3 2 2 3 3 3 3 2 2 2 2 2 2 2 2 3 3 3 3 3 3
2 2 2 2 2 1 1 1 1 1 1 1 1 1 1 1 1 1 2 2 1 2 2 1 2 2 2 3 3 3 2 2 2 2 2 2 2 3 3 3 3 3 4 4
1 1 2 2 2 2 2 1 1 1 1 1 1 1 1 1 1 1 1 2 1 1 2 2 2 3 4 4 3 2 3 2 2 2 2 3 3 3 3 3 3 3 4 4
1 1 1 2 2 2 2 1 2 1 1 0 1 1 1 1 1 2 2 1 1 1 2 2 3 4 5 4 2 2 3 3 3 3 3 3 3 3 3 4 3 3 4 4
1 1 1 1 1 2 2 1 1 1 1 1 1 1 2 2 1 2 1 1 0 2 1 2 2 2 5 3 2 2 3 3 3 3 3 3 3 3 3 3 4 4 4 5
1 1 1 2 2 2 2 2 2 2 2 1 1 2 2 1 1 1 1 0 0 1 1 1 1 2 3 2 2 2 2 3 3 4 3 3 4 3 3 4 4 4 4 5
1 1 1 1 1 1 1 1 1 1 1 1 1 1 0 0 1 1 1 1 1 1 1 1 1 2 2 2 2 3 3 2 2 3 3 4 4 4 4 4 6 5 5 5
2 2 2 1 1 1 0 0 1 1 0 1 1 1 1 1 0 1 1 1 1 1 2 1 1 1 2 2 2 3 3 3 3 3 3 3 4 4 4 5 5 5 5 5
Wind_Direction
265 266 244 226 222 224 241 265 269 255 241 229 223 168 120 107 116 120 116 115 109 103 104 111 118 127 140 154 164 179 197 206 205 207 216 232 222 218 213 215 216 215 221 229
229 222 219 233 235 233 237 250 254 247 252 319 90 103 114 109 110 107 100 100 106 102 101 107 117 135 150 165 174 179 193 201 199 204 211 221 220 216 210 210 217 216 215 219
229 212 222 227 239 236 233 238 241 251 244 161 161 133 121 116 95 72 64 61 77 102 108 118 158 177 179 175 176 180 188 197 206 210 213 218 225 224 223 216 211 214 217 216
233 219 233 181 55 252 231 237 263 268 213 181 152 123 112 97 80 62 40 33 27 18 94 172 182 189 198 182 179 185 198 208 220 227 223 219 229 232 237 238 229 224 224 223
234 229 225 190 181 219 229 220 227 233 200 171 157 168 131 84 62 43 21 6 349 342 357 4 230 194 199 211 202 211 228 235 247 249 242 233 239 245 244 242 240 236 233 227
233 243 240 169 132 237 245 211 98 216 198 189 209 230 98 72 64 47 34 24 14 18 9 19 28 133 199 213 221 243 251 255 258 260 265 261 258 262 255 246 248 248 239 233
232 240 232 72 113 198 232 82 63 64 61 232 278 9 59 75 63 44 33 29 27 34 33 34 37 123 199 230 268 286 289 269 261 279 266 253 255 254 255 248 247 249 241 232
230 238 217 88 170 217 39 57 71 66 79 83 82 77 87 81 73 56 41 35 35 38 33 35 45 50 344 336 331 328 317 318 321 315 298 306 275 253 245 242 232 233 231 236
270 354 68 99 86 73 83 79 64 75 84 111 122 113 98 87 77 59 37 28 32 36 32 29 33 23 0 360 350 327 305 305 302 286 293 310 286 259 244 233 244 249 248 245
189 136 113 108 107 100 81 73 63 80 92 111 120 124 117 101 77 54 39 26 20 29 29 28 24 19 8 6 360 345 321 301 285 272 274 323 305 293 290 290 280 275 271 272
190 159 154 143 124 99 84 76 78 81 90 107 121 118 98 89 71 52 35 27 26 29 28 23 18 14 13 13 12 22 344 329 290 258 280 308 331 344 320 347 351 306 302 296
219 175 209 163 145 126 122 109 97 89 85 91 107 110 95 82 71 58 51 46 37 26 20 19 19 17 15 14 19 3 359 350 315 304 308 269 251 4 50 38 60 32 337 319
312 283 315 146 152 152 143 125 114 114 115 109 105 104 100 90 82 71 61 45 33 22 17 12 10 14 16 13 13 3 351 356 336 342 329 311 303 286 273 161 180 207 224 263
192 175 170 170 156 145 138 124 113 116 119 113 103 97 99 97 85 66 53 41 30 21 16 14 10 12 6 6 8 3 4 30 357 344 337 329 314 303 298 299 288 264 188 193
213 228 201 166 157 150 145 142 136 131 129 121 116 108 99 91 77 56 47 34 34 28 27 21 17 9 359 1 6 0 5 16 8 358 341 338 327 319 326 332 328 327 336 136
198 181 172 166 162 162 162 160 155 150 143 132 125 115 106 94 81 66 55 41 23 22 20 13 7 1 353 352 355 347 9 39 8 348 348 345 334 333 336 337 337 342 342 348
182 177 173 166 166 169 173 175 173 168 155 147 140 133 131 120 106 81 44 31 23 18 16 9 359 352 343 334 327 332 348 28 349 304 333 344 339 336 336 330 333 342 344 9
199 193 190 183 178 180 184 182 180 178 162 164 162 164 164 163 131 67 31 24 28 24 18 7 357 343 339 333 327 324 322 323 312 326 343 348 344 330 323 323 325 328 336 5
160 166 167 166 166 175 189 188 182 178 174 170 178 177 173 166 133 6 327 341 346 350 9 3 353 326 341 349 330 292 297 307 315 328 324 337 303 319 330 330 330 337 341 343
103 118 127 125 120 138 164 157 145 147 166 173 181 189 186 201 191 215 263 277 339 357 353 348 325 330 335 343 313 296 298 300 312 320 312 312 322 331 332 330 330 332 333 335
110 128 135 134 124 105 101 110 120 123 130 199 202 204 212 213 211 230 267 280 20 1 330 312 303 329 334 335 289 302 309 312 316 313 313 321 329 332 336 336 336 335 336 337
106 127 134 130 125 115 100 92 88 108 137 165 191 190 200 216 227 244 271 303 337 355 306 308 336 13 346 314 307 323 318 314 310 315 322 325 324 322 326 329 327 332 336 335
150 154 137 134 132 125 126 125 115 103 79 337 259 255 259 282 286 279 277 326 311 316 297 347 18 11 321 299 316 311 307 310 312 314 318 324 322 321 323 323 323 324 327 327
199 172 145 142 146 151 146 130 129 122 145 240 241 260 264 258 267 290 330 89 298 277 303 49 33 329 293 294 299 294 296 297 297 307 316 315 316 318 319 318 318 322 322 319
204 182 166 173 185 174 154 176 176 167 204 222 215 219 240 256 277 309 324 357 120 242 233 133 178 264 276 305 309 305 298 314 322 319 315 314 309 308 312 315 317 318 316 316
194 198 161 206 224 220 203 204 217 219 223 215 203 203 218 202 178 199 217 196 184 221 255 216 208 245 285 310 316 317 318 315 295 295 313 310 312 317 321 320 316 316 317 319
194 186 200 203 179 174 200 236 251 269 288 314 318 295 261 239 183 197 232 241 230 244 257 253 261 285 300 310 318 318 316 319 323 321 318 319 323 323 325 325 325 326 324 328